Zurück zum Katalog

ARIANE 5 R/B

AktivGTO
NORAD 26496·ROCKET BODY·🇫🇷 France

Gestartet Sep 14, 2000 von Guiana Space Centre

Loading…

TLE

VeraltetSource: Space-Track

Epoche: Sep 14, 2026, 02:11 UTC

1 26496U 00054C   26257.09150824 -.00000119  00000-0  89727-3 0  9995
2 26496   6.8652 185.0101 7170480 354.1305   0.6301  2.24235803212969

Verfolge ARIANE 5 R/B in Echtzeit mit AllMySat

Download on the App Store